Time,TemperatureF,DewpointF,PressureIn,WindDirection,WindDirectionDegrees,WindSpeedMPH,WindSpeedGustMPH,Humidity,HourlyPrecipIn,Conditions,Clouds,dailyrainin,SoftwareType,DateUTC
2013-07-08 00:02:00,77.0,36.0,29.96,West,267,4.0,8.0,23,0.00,,,0.00,,2013-07-08 07:02:00,
2013-07-08 00:11:00,77.0,36.0,29.96,West,267,4.0,8.0,23,0.00,,,0.00,,2013-07-08 07:11:00,
2013-07-08 00:22:00,77.0,36.0,29.95,West,260,3.0,7.0,23,0.00,,,0.00,,2013-07-08 07:22:00,
2013-07-08 00:34:00,76.0,39.0,29.95,West,260,0.0,4.0,26,0.00,,,0.00,,2013-07-08 07:34:00,
2013-07-08 00:44:00,76.0,39.0,29.95,West,260,0.0,4.0,26,0.00,,,0.00,,2013-07-08 07:44:00,
2013-07-08 00:53:00,74.0,37.0,29.96,West,260,0.0,2.0,26,0.00,,,0.00,,2013-07-08 07:53:00,
2013-07-08 01:01:00,73.0,38.0,29.96,West,260,0.0,2.0,28,0.00,,,0.00,,2013-07-08 08:01:00,
2013-07-08 01:11:00,73.0,38.0,29.96,West,260,0.0,2.0,28,0.00,,,0.00,,2013-07-08 08:11:00,
2013-07-08 01:22:00,74.0,39.0,29.97,West,260,2.0,5.0,28,0.00,,,0.00,,2013-07-08 08:22:00,
2013-07-08 01:33:00,73.0,38.0,29.96,West,261,0.0,4.0,28,0.00,,,0.00,,2013-07-08 08:33:00,
2013-07-08 01:42:00,73.0,38.0,29.96,West,261,0.0,4.0,28,0.00,,,0.00,,2013-07-08 08:42:00,
2013-07-08 01:53:00,73.0,37.0,29.96,West,261,0.0,3.0,27,0.00,,,0.00,,2013-07-08 08:53:00,
2013-07-08 02:01:00,72.0,37.0,29.96,West,261,1.0,4.0,28,0.00,,,0.00,,2013-07-08 09:01:00,
2013-07-08 02:11:00,72.0,37.0,29.96,West,261,1.0,4.0,28,0.00,,,0.00,,2013-07-08 09:11:00,
2013-07-08 02:21:00,72.0,37.0,29.97,West,261,0.0,1.0,28,0.00,,,0.00,,2013-07-08 09:21:00,
2013-07-08 02:34:00,71.0,37.0,29.97,West,261,0.0,0.0,29,0.00,,,0.00,,2013-07-08 09:34:00,
2013-07-08 02:43:00,71.0,37.0,29.97,West,261,0.0,0.0,29,0.00,,,0.00,,2013-07-08 09:43:00,
2013-07-08 02:53:00,71.0,37.0,29.95,West,261,0.0,0.0,29,0.00,,,0.00,,2013-07-08 09:53:00,
2013-07-08 03:01:00,72.0,37.0,29.95,West,261,0.0,1.0,28,0.00,,,0.00,,2013-07-08 10:01:00,
2013-07-08 03:11:00,72.0,37.0,29.95,West,261,0.0,1.0,28,0.00,,,0.00,,2013-07-08 10:11:00,
2013-07-08 03:22:00,72.0,37.0,29.97,West,261,0.0,1.0,28,0.00,,,0.00,,2013-07-08 10:22:00,
2013-07-08 03:34:00,72.0,38.0,29.97,West,261,0.0,2.0,29,0.00,,,0.00,,2013-07-08 10:34:00,
2013-07-08 03:43:00,72.0,38.0,29.97,West,261,0.0,2.0,29,0.00,,,0.00,,2013-07-08 10:43:00,
2013-07-08 03:53:00,72.0,38.0,29.97,West,261,0.0,2.0,29,0.00,,,0.00,,2013-07-08 10:53:00,
2013-07-08 04:01:00,71.0,37.0,29.95,West,261,2.0,4.0,29,0.00,,,0.00,,2013-07-08 11:01:00,
2013-07-08 04:11:00,71.0,37.0,29.95,West,261,2.0,4.0,29,0.00,,,0.00,,2013-07-08 11:11:00,
2013-07-08 04:22:00,71.0,38.0,29.94,West,261,0.0,3.0,30,0.00,,,0.00,,2013-07-08 11:22:00,
2013-07-08 04:33:00,70.0,37.0,29.95,West,261,2.0,4.0,30,0.00,,,0.00,,2013-07-08 11:33:00,
2013-07-08 04:43:00,70.0,37.0,29.95,West,261,2.0,4.0,30,0.00,,,0.00,,2013-07-08 11:43:00,
2013-07-08 04:53:00,71.0,37.0,29.96,West,261,2.0,3.0,29,0.00,,,0.00,,2013-07-08 11:53:00,
2013-07-08 05:01:00,70.0,37.0,29.95,West,261,0.0,3.0,30,0.00,,,0.00,,2013-07-08 12:01:00,
2013-07-08 05:11:00,70.0,37.0,29.95,West,261,0.0,3.0,30,0.00,,,0.00,,2013-07-08 12:11:00,
2013-07-08 05:22:00,69.0,37.0,29.96,West,261,0.0,1.0,31,0.00,,,0.00,,2013-07-08 12:22:00,
2013-07-08 05:33:00,69.0,38.0,29.96,West,261,0.0,0.0,32,0.00,,,0.00,,2013-07-08 12:33:00,
2013-07-08 05:43:00,69.0,38.0,29.96,West,261,0.0,0.0,32,0.00,,,0.00,,2013-07-08 12:43:00,
2013-07-08 05:53:00,69.0,37.0,29.98,West,261,0.0,0.0,31,0.00,,,0.00,,2013-07-08 12:53:00,
2013-07-08 06:01:00,70.0,36.0,29.98,WSW,247,4.0,5.0,29,0.00,,,0.00,,2013-07-08 13:01:00,
2013-07-08 06:11:00,70.0,36.0,29.98,WSW,247,4.0,5.0,29,0.00,,,0.00,,2013-07-08 13:11:00,
2013-07-08 06:22:00,70.0,36.0,29.98,WSW,248,1.0,3.0,29,0.00,,,0.00,,2013-07-08 13:22:00,
2013-07-08 06:42:00,70.0,37.0,29.98,WSW,248,0.0,2.0,30,0.00,,,0.00,,2013-07-08 13:42:00,
2013-07-08 06:53:00,71.0,36.0,29.99,WSW,248,2.0,3.0,28,0.00,,,0.00,,2013-07-08 13:53:00,
2013-07-08 07:01:00,72.0,40.0,30.00,WSW,248,0.0,1.0,31,0.00,,,0.00,,2013-07-08 14:01:00,
2013-07-08 07:12:00,72.0,40.0,30.00,WSW,248,0.0,1.0,31,0.00,,,0.00,,2013-07-08 14:12:00,
2013-07-08 07:22:00,73.0,37.0,30.00,WSW,248,0.0,2.0,27,0.00,,,0.00,,2013-07-08 14:22:00,
2013-07-08 07:33:00,75.0,39.0,30.00,WSW,248,0.0,0.0,27,0.00,,,0.00,,2013-07-08 14:33:00,
2013-07-08 07:43:00,75.0,39.0,30.00,WSW,248,0.0,0.0,27,0.00,,,0.00,,2013-07-08 14:43:00,
2013-07-08 07:53:00,78.0,39.0,29.99,WSW,248,0.0,0.0,25,0.00,,,0.00,,2013-07-08 14:53:00,
2013-07-08 08:01:00,79.0,39.0,29.99,WSW,248,0.0,2.0,24,0.00,,,0.00,,2013-07-08 15:01:00,
2013-07-08 08:11:00,79.0,39.0,29.99,WSW,248,0.0,2.0,24,0.00,,,0.00,,2013-07-08 15:11:00,
2013-07-08 08:22:00,81.0,39.0,30.00,WSW,248,0.0,1.0,22,0.00,,,0.00,,2013-07-08 15:22:00,
2013-07-08 08:33:00,83.0,36.0,30.01,North,11,0.0,4.0,19,0.00,,,0.00,,2013-07-08 15:33:00,
2013-07-08 08:43:00,83.0,36.0,30.01,North,11,0.0,4.0,19,0.00,,,0.00,,2013-07-08 15:43:00,
2013-07-08 08:53:00,84.0,37.0,30.02,North,355,1.0,3.0,19,0.00,,,0.00,,2013-07-08 15:53:00,
2013-07-08 09:01:00,86.0,36.0,30.01,North,355,0.0,3.0,17,0.00,,,0.00,,2013-07-08 16:01:00,
2013-07-08 09:11:00,86.0,36.0,30.01,North,355,0.0,3.0,17,0.00,,,0.00,,2013-07-08 16:11:00,
2013-07-08 09:22:00,88.0,31.0,30.01,WSW,252,1.0,5.0,13,0.00,,,0.00,,2013-07-08 16:22:00,
2013-07-08 09:33:00,89.0,28.0,30.01,West,279,1.0,9.0,11,0.00,,,0.00,,2013-07-08 16:33:00,
2013-07-08 09:43:00,89.0,28.0,30.01,West,279,1.0,9.0,11,0.00,,,0.00,,2013-07-08 16:43:00,
2013-07-08 09:56:00,90.0,31.0,30.01,WSW,257,4.0,7.0,12,0.00,,,0.00,,2013-07-08 16:56:00,
2013-07-08 10:23:00,92.0,30.0,30.01,SW,215,5.0,11.0,11,0.00,,,0.00,,2013-07-08 17:23:00,
2013-07-08 10:34:00,92.0,30.0,30.01,WNW,296,3.0,10.0,11,0.00,,,0.00,,2013-07-08 17:34:00,
2013-07-08 10:54:00,92.0,30.0,30.02,WSW,246,6.0,10.0,11,0.00,,,0.00,,2013-07-08 17:54:00,
2013-07-08 11:01:00,92.0,32.0,30.03,SSE,149,3.0,13.0,12,0.00,,,0.00,,2013-07-08 18:01:00,
2013-07-08 11:13:00,92.0,32.0,30.03,SSE,149,3.0,13.0,12,0.00,,,0.00,,2013-07-08 18:13:00,
2013-07-08 11:24:00,93.0,31.0,30.02,SSE,155,7.0,14.0,11,0.00,,,0.00,,2013-07-08 18:24:00,
2013-07-08 12:24:00,94.0,29.0,30.01,South,170,7.0,16.0,10,0.00,,,0.00,,2013-07-08 19:24:00,
2013-07-08 12:33:00,94.0,27.0,30.01,WSW,238,6.0,18.0,9,0.00,,,0.00,,2013-07-08 19:33:00,
2013-07-08 13:02:00,93.0,26.0,30.01,SSE,161,6.0,23.0,9,0.00,,,0.00,,2013-07-08 20:02:00,
2013-07-08 13:13:00,93.0,26.0,30.01,SSE,161,6.0,23.0,9,0.00,,,0.00,,2013-07-08 20:13:00,
2013-07-08 13:24:00,93.0,28.0,30.02,SE,145,12.0,22.0,10,0.00,,,0.00,,2013-07-08 20:24:00,
2013-07-08 13:34:00,93.0,28.0,30.01,SE,142,10.0,19.0,10,0.00,,,0.00,,2013-07-08 20:34:00,
2013-07-08 13:43:00,93.0,28.0,30.01,SE,142,10.0,19.0,10,0.00,,,0.00,,2013-07-08 20:43:00,
2013-07-08 14:02:00,95.0,30.0,30.01,South,174,9.0,20.0,10,0.00,,,0.00,,2013-07-08 21:02:00,
2013-07-08 14:24:00,94.0,29.0,30.01,SSE,159,14.0,22.0,10,0.00,,,0.00,,2013-07-08 21:24:00,
2013-07-08 14:33:00,94.0,29.0,30.01,SSE,167,14.0,21.0,10,0.00,,,0.00,,2013-07-08 21:33:00,
2013-07-08 15:02:00,94.0,29.0,30.01,SSE,162,12.0,21.0,10,0.00,,,0.00,,2013-07-08 22:02:00,
2013-07-08 15:12:00,94.0,29.0,30.01,SSE,162,12.0,21.0,10,0.00,,,0.00,,2013-07-08 22:12:00,
2013-07-08 15:23:00,94.0,29.0,30.01,South,182,11.0,20.0,10,0.00,,,0.00,,2013-07-08 22:23:00,
2013-07-08 15:33:00,94.0,29.0,30.01,SSE,163,8.0,21.0,10,0.00,,,0.00,,2013-07-08 22:33:00,
2013-07-08 16:02:00,93.0,31.0,30.02,SE,135,8.0,27.0,11,0.00,,,0.00,,2013-07-08 23:02:00,
2013-07-08 16:12:00,93.0,28.0,30.00,South,187,11.0,20.0,10,0.00,,,0.00,,2013-07-08 23:12:00,
2013-07-08 16:24:00,94.0,31.0,29.99,SSE,165,12.0,21.0,11,0.00,,,0.00,,2013-07-08 23:24:00,
2013-07-08 16:34:00,94.0,31.0,29.99,SSE,165,12.0,21.0,11,0.00,,,0.00,,2013-07-08 23:34:00,
2013-07-08 16:44:00,94.0,31.0,29.99,SSE,165,12.0,21.0,11,0.00,,,0.00,,2013-07-08 23:44:00,
2013-07-08 17:02:00,93.0,33.0,29.99,South,173,10.0,24.0,12,0.00,,,0.00,,2013-07-09 00:02:00,
2013-07-08 17:15:00,93.0,33.0,29.99,South,173,10.0,24.0,12,0.00,,,0.00,,2013-07-09 00:15:00,
2013-07-08 17:23:00,93.0,31.0,29.98,SSW,194,9.0,18.0,11,0.00,,,0.00,,2013-07-09 00:23:00,
2013-07-08 18:02:00,93.0,31.0,29.98,South,172,6.0,14.0,11,0.00,,,0.00,,2013-07-09 01:02:00,
2013-07-08 18:12:00,93.0,31.0,29.98,South,172,6.0,14.0,11,0.00,,,0.00,,2013-07-09 01:12:00,
2013-07-08 18:24:00,91.0,31.0,29.98,SSE,160,7.0,15.0,12,0.00,,,0.00,,2013-07-09 01:24:00,
2013-07-08 18:32:00,91.0,31.0,29.98,SSE,160,7.0,15.0,12,0.00,,,0.00,,2013-07-09 01:32:00,
2013-07-08 19:11:00,-999.0,-99.9,29.98,SSE,148,9.0,15.0,12,0.00,,,0.00,,2013-07-09 02:11:00,
2013-07-08 19:21:00,88.0,29.0,30.00,SSE,163,7.0,15.0,12,0.00,,,0.00,,2013-07-09 02:21:00,
2013-07-08 19:45:00,87.0,30.0,30.00,SSE,167,9.0,16.0,13,0.00,,,0.00,,2013-07-09 02:45:00,
2013-07-08 20:33:00,82.0,31.0,30.03,SSE,163,4.0,11.0,16,0.00,,,0.00,,2013-07-09 03:33:00,
2013-07-08 21:01:00,81.0,31.0,30.01,SSE,148,4.0,10.0,16,0.00,,,0.00,,2013-07-09 04:01:00,
2013-07-08 21:02:00,81.0,31.0,30.03,SSE,164,4.0,14.0,16,0.00,,,0.00,,2013-07-09 04:02:00,
2013-07-08 21:11:00,81.0,31.0,30.03,SSE,164,4.0,14.0,16,0.00,,,0.00,,2013-07-09 04:11:00,
2013-07-08 21:22:00,81.0,31.0,30.03,South,178,3.0,9.0,16,0.00,,,0.00,,2013-07-09 04:22:00,
2013-07-08 21:33:00,80.0,30.0,30.04,South,184,2.0,8.0,16,0.00,,,0.00,,2013-07-09 04:33:00,
2013-07-08 21:42:00,80.0,30.0,30.04,South,184,2.0,8.0,16,0.00,,,0.00,,2013-07-09 04:42:00,
2013-07-08 21:53:00,79.0,30.0,30.06,South,183,0.0,3.0,17,0.00,,,0.00,,2013-07-09 04:53:00,
2013-07-08 22:02:00,78.0,32.0,30.05,South,184,0.0,0.0,19,0.00,,,0.00,,2013-07-09 05:02:00,
2013-07-08 22:11:00,78.0,32.0,30.05,South,184,0.0,0.0,19,0.00,,,0.00,,2013-07-09 05:11:00,
2013-07-08 22:22:00,79.0,32.0,30.04,South,183,0.0,3.0,18,0.00,,,0.00,,2013-07-09 05:22:00,
2013-07-08 22:33:00,79.0,33.0,30.05,South,184,0.0,0.0,19,0.00,,,0.00,,2013-07-09 05:33:00,
2013-07-08 22:42:00,79.0,33.0,30.05,South,184,0.0,0.0,19,0.00,,,0.00,,2013-07-09 05:42:00,
2013-07-08 22:52:00,78.0,32.0,30.07,South,183,0.0,3.0,19,0.00,,,0.00,,2013-07-09 05:52:00,
2013-07-08 23:01:00,78.0,34.0,30.05,South,184,0.0,3.0,20,0.00,,,0.00,,2013-07-09 06:01:00,
2013-07-08 23:11:00,78.0,34.0,30.05,South,184,0.0,3.0,20,0.00,,,0.00,,2013-07-09 06:11:00,
2013-07-08 23:22:00,77.0,33.0,30.06,South,184,0.0,4.0,20,0.00,,,0.00,,2013-07-09 06:22:00,
2013-07-08 23:33:00,77.0,33.0,30.06,South,184,1.0,3.0,20,0.00,,,0.00,,2013-07-09 06:33:00,
2013-07-08 23:43:00,77.0,33.0,30.06,South,184,1.0,3.0,20,0.00,,,0.00,,2013-07-09 06:43:00,
2013-07-08 23:53:00,76.0,33.0,30.06,South,184,0.0,1.0,21,0.00,,,0.00,,2013-07-09 06:53:00,